Wind_Speed
43 43 42 43 42 41 40 40 40 39 39 39 40 41 41 42 42 41 41 41 40 39 39 39 39 39 39 40 40 40 40 40 41 41 41 41 40 39
44 43 43 43 43 44 44 44 43 43 42 42 42 42 43 43 43 43 42 42 42 41 41 41 41 41 41 41 41 41 41 41 41 41 41 41 40 39
44 44 44 45 46 46 45 45 45 45 44 44 44 44 44 45 45 44 43 43 43 42 42 42 43 43 42 42 42 42 41 41 41 41 42 41 40 40
46 45 46 47 47 48 48 47 47 47 47 46 46 47 46 46 46 45 45 44 44 44 44 44 44 44 44 44 44 43 43 42 42 42 41 42 42 41
49 49 49 49 49 50 50 50 50 50 50 50 49 49 48 48 47 47 46 45 45 45 45 45 45 44 45 44 44 44 43 43 43 43 42 42 42 42
50 50 50 50 51 51 51 52 52 52 52 51 51 50 50 49 48 48 47 47 46 46 46 46 46 46 46 45 45 45 44 44 43 43 42 42 42 42
50 50 50 51 52 52 52 52 53 53 52 52 51 50 50 50 50 49 49 48 48 48 47 47 47 48 48 47 46 46 46 45 44 44 43 43 42 41
52 51 51 51 52 52 52 52 53 52 52 52 51 51 51 51 51 51 51 50 50 50 50 49 49 49 49 48 47 47 46 45 44 44 43 43 43 42
53 53 54 54 55 54 53 53 53 52 52 52 52 52 52 52 52 52 52 52 52 52 52 51 51 51 51 50 49 48 47 45 44 44 43 43 43 42
54 54 55 56 56 56 55 55 55 54 55 55 55 54 54 53 53 53 53 53 53 54 54 53 52 52 52 51 50 49 48 46 45 44 43 42 43 42
55 56 56 56 56 56 56 56 56 56 56 56 56 56 56 55 55 54 53 54 54 54 54 54 54 53 52 51 50 49 48 47 46 45 44 44 44 43
56 56 56 56 56 56 57 57 57 57 57 57 57 57 56 56 56 56 55 55 55 55 55 55 54 54 52 51 51 50 48 48 47 46 45 44 44 43
56 56 56 56 56 57 57 57 57 57 57 57 57 56 56 56 55 55 55 55 55 55 54 54 53 53 53 51 50 49 48 47 47 46 45 45 44 43
56 56 56 56 56 56 57 57 58 57 57 57 56 55 55 54 55 55 55 55 54 54 53 53 52 52 51 50 49 48 46 46 46 45 44 44 43 43
55 55 55 55 56 56 56 56 57 57 57 57 56 55 55 54 54 54 53 53 52 52 51 50 50 49 49 48 47 45 44 44 44 43 43 43 42 42
55 54 54 54 54 54 54 54 55 55 55 55 54 54 54 53 53 53 52 51 50 50 49 49 48 47 46 45 44 43 43 42 42 42 42 42 41 41
53 53 52 52 52 53 53 53 53 54 54 54 53 53 53 53 52 51 50 50 49 48 47 47 46 46 44 43 42 41 41 40 40 40 40 40 39 39
52 51 51 51 51 51 52 52 52 52 52 53 52 52 52 51 49 49 48 48 47 46 46 45 45 43 42 41 40 40 40 39 39 38 38 38 37 37
51 50 49 48 48 49 49 50 50 50 50 50 50 50 49 48 47 46 46 46 45 45 44 43 42 41 39 38 38 39 38 37 37 36 35 35 35 35
49 48 48 47 47 47 47 47 47 47 47 47 46 46 45 45 45 44 44 43 43 42 41 40 39 37 36 36 36 36 36 35 35 34 33 33 32 33
46 46 45 45 45 44 44 44 44 44 43 43 43 43 43 43 43 42 42 41 40 39 38 37 36 35 34 34 34 33 33 33 32 32 31 31 31 31
43 43 42 41 41 41 41 41 40 40 40 40 40 40 40 40 40 40 39 38 38 36 35 34 33 32 32 32 31 30 30 30 30 30 30 30 30 29
40 40 39 39 39 39 38 38 37 37 37 38 38 38 37 37 37 37 36 35 35 33 33 32 31 31 31 30 29 28 28 29 29 29 28 29 29 28
Wind_Direction
262 264 265 266 267 266 268 269 270 271 271 273 274 275 275 277 279 280 281 282 281 282 281 281 281 282 283 283 283 284 284 284 284 285 286 287 288 289
262 263 264 265 266 267 268 270 270 271 271 272 274 275 276 277 278 280 280 280 280 280 279 280 281 281 282 282 283 283 283 284 284 285 285 286 287 287
261 262 263 264 265 267 268 270 271 271 272 273 274 275 275 276 278 279 279 279 279 279 278 279 280 280 281 281 282 282 282 284 284 284 284 285 286 286
261 262 264 264 265 267 268 269 270 271 272 273 274 274 275 276 277 277 278 277 277 278 278 279 280 280 281 281 281 281 282 283 283 283 283 284 284 285
260 262 264 265 266 268 269 270 270 271 273 273 274 274 275 276 276 277 277 277 277 277 278 278 279 279 280 280 280 281 281 281 282 282 282 282 284 285
262 263 264 265 267 268 269 270 271 272 272 273 273 274 275 275 275 275 276 276 277 277 277 278 278 279 279 279 280 280 280 280 281 281 281 282 284 285
263 265 266 267 267 268 269 270 271 271 272 272 273 274 274 274 274 274 275 275 276 276 276 277 277 278 279 279 280 281 280 280 280 280 280 281 282 283
264 265 267 268 269 269 270 270 270 271 272 272 273 273 274 274 274 274 274 274 274 275 275 276 278 278 279 279 279 280 280 280 279 279 280 280 281 281
266 267 268 268 268 269 269 269 270 270 271 272 272 273 273 273 274 274 274 274 274 274 274 276 277 278 278 278 278 279 279 278 278 277 278 280 280 280
267 269 269 269 268 268 268 269 270 270 270 271 271 272 273 273 273 273 273 273 274 274 274 275 276 277 277 278 278 278 277 277 276 277 277 278 279 280
268 270 270 270 269 268 268 269 270 270 270 271 272 272 273 273 273 273 273 274 274 275 275 275 276 276 276 277 277 277 276 276 276 276 276 277 277 278
268 269 269 269 269 268 268 269 269 269 270 270 271 272 272 273 273 273 274 274 275 275 275 276 276 275 274 275 276 276 275 274 275 275 275 276 276 277
268 268 268 268 268 268 268 269 269 269 269 270 271 271 272 272 272 273 274 275 275 276 276 275 275 274 274 274 274 274 273 273 273 274 274 275 275 276
268 268 268 268 269 269 269 269 269 269 269 270 270 271 271 272 273 274 275 275 276 276 275 275 274 274 274 274 273 272 272 272 273 273 274 274 274 275
268 268 268 269 269 269 269 269 269 269 269 270 270 270 271 271 272 273 274 274 275 275 275 275 274 273 273 273 272 271 271 272 273 273 273 273 273 274
268 268 268 268 269 269 269 269 269 269 269 270 270 270 271 271 272 272 273 273 273 274 274 273 272 272 272 272 271 271 271 272 273 273 272 273 274 275
268 268 268 268 268 268 268 268 268 269 269 270 270 270 271 272 271 271 271 272 273 273 273 272 271 272 272 271 270 271 272 273 273 273 273 274 275 275
269 269 269 269 269 268 268 268 268 268 269 269 269 270 271 271 269 269 270 271 272 272 272 272 271 270 270 269 270 270 271 272 273 273 273 274 275 276
269 270 270 269 269 269 268 268 268 268 268 268 268 269 269 268 268 269 269 270 271 271 271 270 269 268 268 267 268 269 270 271 271 272 274 275 276 277
270 270 270 269 269 269 268 268 268 268 268 267 267 267 267 268 268 268 269 270 270 269 269 268 267 266 267 267 267 268 268 268 269 270 272 274 276 278
269 269 269 269 268 268 267 267 267 267 267 267 266 266 266 267 267 268 267 268 268 267 267 266 264 264 266 267 268 268 266 266 267 269 271 273 276 277
268 268 268 268 268 267 267 267 267 266 266 266 266 267 267 267 267 266 265 265 265 264 264 262 260 262 264 266 267 266 265 265 266 268 271 275 277 278
267 267 266 266 266 266 265 265 266 266 266 267 267 267 267 266 265 264 264 264 263 261 260 258 258 260 262 264 264 264 264 264 265 268 271 275 278 279
Height
5721 5721 5722 5723 5723 5723 5723 5724 5724 5724 5725 5724 5723 5722 5721 5720 5719 5718 5716 5715 5714 5712 5711 5710 5708 5707 5705 5703 5701 5699 5698 5696 5694 5693 5691 5689 5687 5685
5710 5711 5711 5712 5712 5712 5713 5713 5713 5713 5714 5714 5712 5711 5710 5710 5708 5707 5706 5704 5703 5702 5701 5699 5698 5696 5695 5693 5691 5689 5688 5686 5684 5682 5681 5679 5677 5675
5698 5699 5700 5701 5701 5701 5701 5701 5701 5701 5702 5703 5701 5700 5699 5698 5697 5696 5695 5694 5692 5691 5689 5688 5687 5685 5684 5682 5680 5679 5677 5675 5673 5671 5670 5668 5666 5665
5687 5688 5689 5689 5690 5690 5690 5690 5689 5689 5690 5690 5690 5688 5687 5686 5686 5685 5683 5682 5681 5679 5678 5677 5675 5674 5672 5671 5669 5667 5666 5664 5662 5660 5659 5657 5656 5654
5675 5676 5676 5677 5677 5677 5677 5677 5677 5677 5676 5677 5677 5676 5675 5673 5673 5672 5671 5669 5668 5667 5666 5665 5663 5662 5660 5659 5657 5656 5654 5653 5651 5649 5647 5646 5644 5642
5662 5663 5663 5664 5664 5664 5664 5664 5664 5663 5663 5663 5663 5662 5661 5660 5659 5659 5658 5656 5655 5654 5653 5652 5651 5649 5648 5647 5645 5643 5642 5640 5638 5637 5635 5634 5632 5631
5648 5649 5650 5650 5650 5650 5650 5650 5649 5649 5649 5648 5648 5648 5647 5647 5646 5645 5644 5643 5642 5641 5639 5639 5637 5636 5634 5633 5632 5630 5629 5627 5626 5625 5624 5622 5621 5620
5634 5635 5635 5636 5636 5636 5635 5635 5635 5634 5634 5634 5634 5634 5633 5632 5631 5630 5629 5629 5629 5628 5626 5625 5624 5622 5621 5620 5619 5617 5616 5614 5613 5612 5611 5610 5609 5608
5619 5620 5620 5620 5620 5620 5620 5620 5620 5619 5620 5620 5620 5619 5618 5618 5616 5616 5614 5614 5614 5613 5611 5611 5610 5609 5607 5606 5605 5604 5603 5602 5601 5600 5599 5598 5596 5595
5604 5604 5604 5605 5604 5604 5604 5604 5604 5604 5604 5604 5605 5604 5603 5601 5601 5600 5599 5599 5599 5598 5596 5597 5596 5594 5593 5592 5591 5590 5589 5588 5587 5586 5586 5585 5583 5582
5588 5588 5588 5588 5588 5588 5588 5589 5589 5589 5588 5587 5588 5587 5586 5585 5584 5584 5584 5584 5584 5583 5581 5580 5580 5579 5578 5578 5577 5576 5575 5574 5574 5573 5572 5571 5570 5569
5571 5571 5571 5571 5571 5571 5571 5572 5572 5572 5572 5571 5571 5570 5569 5569 5568 5568 5567 5567 5567 5567 5566 5564 5564 5563 5564 5564 5562 5561 5560 5560 5559 5559 5558 5557 5556 5555
5554 5554 5554 5554 5554 5554 5554 5554 5555 5555 5554 5554 5554 5554 5553 5552 5552 5551 5550 5550 5550 5550 5549 5548 5548 5547 5546 5548 5547 5546 5545 5545 5545 5544 5543 5543 5542 5541
5536 5537 5537 5537 5536 5537 5537 5537 5537 5537 5537 5537 5537 5537 5537 5536 5535 5535 5534 5533 5533 5533 5533 5531 5531 5531 5531 5531 5532 5532 5531 5530 5530 5530 5529 5529 5528 5527
5519 5519 5520 5519 5519 5519 5519 5519 5519 5519 5520 5520 5521 5521 5521 5520 5519 5519 5518 5518 5517 5517 5516 5516 5515 5515 5515 5516 5516 5517 5516 5516 5515 5515 5515 5515 5515 5514
5501 5502 5502 5503 5502 5502 5502 5502 5502 5502 5502 5503 5504 5504 5504 5503 5503 5503 5503 5502 5503 5503 5502 5501 5500 5501 5501 5502 5502 5503 5503 5503 5502 5502 5501 5501 5501 5500
5485 5485 5486 5486 5486 5486 5486 5486 5486 5486 5486 5487 5487 5488 5488 5488 5488 5487 5487 5487 5488 5488 5488 5487 5486 5487 5487 5488 5489 5490 5489 5490 5489 5489 5489 5489 5488 5487
5468 5469 5470 5470 5470 5470 5470 5470 5470 5470 5470 5470 5471 5471 5472 5472 5472 5472 5472 5473 5473 5474 5474 5474 5473 5474 5475 5476 5477 5477 5477 5477 5477 5477 5476 5476 5477 5475
5453 5453 5454 5454 5454 5454 5454 5454 5454 5454 5454 5454 5455 5456 5456 5457 5457 5458 5458 5459 5459 5460 5460 5460 5460 5461 5462 5464 5466 5465 5465 5465 5465 5465 5465 5465 5465 5464
5437 5438 5438 5438 5438 5439 5439 5439 5439 5439 5439 5440 5441 5441 5442 5442 5443 5444 5445 5445 5446 5447 5447 5448 5448 5449 5450 5452 5453 5454 5453 5453 5454 5454 5454 5454 5453 5452
5423 5423 5423 5423 5424 5424 5424 5424 5425 5425 5426 5426 5427 5427 5428 5429 5429 5430 5431 5432 5433 5434 5435 5437 5437 5438 5439 5440 5441 5442 5442 5442 5443 5444 5444 5444 5443 5443
5408 5409 5409 5409 5410 5410 5410 5411 5411 5412 5413 5413 5414 5415 5415 5416 5417 5418 5419 5420 5421 5422 5424 5425 5426 5427 5429 5430 5431 5431 5432 5433 5433 5433 5434 5434 5433 5433
5395 5396 5396 5397 5397 5397 5398 5398 5399 5400 5401 5401 5402 5403 5403 5404 5405 5406 5407 5408 5410 5411 5413 5415 5416 5418 5419 5420 5421 5422 5423 5424 5424 5425 5425 5424 5424 5423